Погода в Бирске

Погода в Бирске : погода сейчас, прогноз погоды и архив. Всё, что Вы хотите узнать о погоде в Бирске!

Хотите узнать прогноз погоды в Бирске? Тогда Вам сюда: Погода в Бирске

Поиск расширенной информации на нашем сайте:

Другие новости

Новости СМИ2

Главная страница сайта

Новости сайта

03.07.2017

Напоминаем, что на нашем специализированном сайте Метеоцентр.Азия вы можете получить высокодетализированные автоматические прогнозы погоды по пунктам России, СНГ и мира в авиационном формате (включающие направление и скорость ветра, видимость, явления погоды, количество и форму облачности, нижнюю и верхнюю границу облачности).

Рекомендуем: Английский язык в Одинцово

Погода в Бирске - сегодня

Время (UTC), дата Ветер
(°,м/с) 
Видим.   Явления Облачность Т
(°С)
Тd
(°С)
f(%) Тe
(°С)
Pmin
(гПа)
dP
(гПа)
Po
(мм)
O2
(г/м3)
Тmin Tmax R s Состояние
почвы
21 18.05.18 230 (ЮЗ) 10 км  {гроза, ливн. осадки}  9/9 600 м кучево-дожд. 
[Cb cap]
+17.3 +11.5 69 +21  1014.1  744  280           
00 19.05.18 140 (ЮВ) 20000 м  в посл. час ливневой дождь{гроза}  6/5 600 м кучево-дожд., верхняя 
[Cb cap|Ci sp]
+15.9 +11.7 76 +20  1013.1  -1.1  743  281           
03 19.05.18 160 (Ю) 5{10}  20000 м  в посл. час ливневой дождь  8/8 600 м кучево-дожд. 
[Cb cap]
+15.1 +12.9 87 +20  1013.7  0.5  744  281  +15      влажная 
06 19.05.18 160 (Ю) 5{12}  20000 м  {ливн. осадки}  9/5 600 м кучево-дожд., средняя, верхняя 
[Cb cap|Ac trans|Ci fib]
+18.4 +12.9 70 +24  1013.6  -0.1  744  278           
09 19.05.18 150 (ЮВ) 6-12{12}  20000 м  {ливн. осадки}  9/8 600 м кучево-дожд., средняя, верхняя 
[Cb cap|Ac trans|Ci fib]
+19.4 +13.3 68 +26  1012.9  -0.6  743  277           
12 19.05.18 160 (Ю) 5-10{12}  20000 м  {ливн. осадки}  8/6 600 м кучево-дожд., верхняя 
[Cb cap|Ci fib]
+22.3 +14.5 61 +30  1011.2  -1.5  742  274           
15 19.05.18 300 (СЗ) 3{16}  10 км  гроза, ливневой дождь  9/9 600 м кучево-дожд. 
[Cb cap]
+17.2 +11.4 69 +21  1011.3  -0.2  742  279    +23.4     
18 19.05.18 130 (ЮВ) 10 км  гроза без осадков{ливн. осадки}  9/8 600 м кучево-дожд., верхняя 
[Cb cap|Ci sp]
+16.5 +12 75 +21  1010  -1.3  741  279           
21 19.05.18 190 (Ю) 10 км  {гроза}  ясно 
+17.5 +9.7 60 +19  1010.4  0.5  741  279           
00 20.05.18 170 (Ю) 20000 м  {гроза}  3/3 600 м средняя 
[Sc|Ac cast]
+15.5 +8.7 64 +16  1010.8  0.3  742  281           
03 20.05.18 190 (Ю) 20000 м    8/3 600 м верхняя 
[Sc|Ci sp]
+18.8 +9.7 55 +20  1009.7  -0.9  741  278  +14.1    0.3    влажная 
06 20.05.18 180 (Ю) 20000 м  {ливн. осадки}  8/5 600 м кучево-дожд., средняя 
[Cb cap|Ac trans]
+19.7 +11.6 60 +24  1010.1  0.5  741  276           
09 20.05.18 220 (ЮЗ) 5-10{11}  20000 м    9/8 600 м кучево-дожд., верхняя 
[Cb cap|Ci sp]
+22.9 +9.8 43 +24  1009.1  -0.8  741  274           
12 20.05.18 230 (ЮЗ) 4{15}  20000 м  в посл. час ливневой дождь  9/9 300 м кучево-дожд. 
[Cb cap]
+21.4 +10.8 51 +24  1009.4  0.2  741  275           
15 20.05.18 270 (З) 5-10{12}  20000 м    9/8 300 м кучево-дожд., верхняя 
[Cb cap|Ci fib]
+21.3 +9.4 47 +22  1011.2  1.7  742  276    +24.8     
18 20.05.18 280 (З) 3{11}  10 км    1/1 600 м 
[Sc]
+16.4 +11.6 73 +21  1014  2.4  744  281           
21 20.05.18 310 (СЗ) 10 км    9/9 600 м кучево-дожд. 
[Cb cap]
+14.4 +11.6 83 +18  1015.7  1.5  745  283           
00 21.05.18 330 (СЗ) 20000 м    10/10 600 м кучево-дожд. 
[Cb cap]
+10.6 +8.5 87 +10  1017.8  1.8  747  288           
03 21.05.18 330 (СЗ) 20000 м  в посл. час ливневой дождь  9/9 600 м кучево-дожд. 
[Cb cap]
+10 +6.8 80 +9  1020.5  2.6  749  290  +9.6    0.0    влажная 
06 21.05.18 320 (СЗ) 20000 м  {ливн. осадки}  9/9 600 м кучево-дожд. 
[Cb cap]
+11.7 +5 63 +12  1021.9  1.5  750  289           
09 21.05.18 340 (С) 20000 м    9/9 600 м кучево-дожд. 
[Cb cap]
+11.8 +4 59 +11  1023.2  1.1  751  289           
12 21.05.18 330 (СЗ) 20000 м    9/9 600 м кучево-дожд. 
[Cb cap]
+11.7 +4.3 60 +11  1024.1  0.9  751  290           
15 21.05.18 310 (СЗ) 20000 м    4/4 600 м 
[Sc]
+13 +3.5 52 +13  1024.2  -0.1  751  288    +13.7       
18 21.05.18 340 (С) 10 км    ясно 
+10.1 +1.6 55 +10  1026  1.6  752  292           
21 21.05.18 250 (З) 10 км    ясно 
+8 +1.3 63 +8  1027.2  0.9  753  295           
Время (UTC), дата Ветер
(°,м/с) 
Видим.   Явления Облачность Т
(°С)
Тd
(°С)
f(%) Тe
(°С)
Pmin
(гПа)
dP
(гПа)
Po
(мм)
O2
(г/м3)
Тmin Tmax R s Состояние
почвы

Для получения пояснительной информации подведите курсор к названию столбца.

ПОГОДА в Бирске - архив

Всё, что Вы хотите узнать о погоде в Бирске - удобно и подробно!

Выберите нужную дату (начиная с 1 января 2015* года) и нажмите кнопку "Найти".
Будут отображены архивные сводки погоды по пункту Бирск, начиная с указанной даты.


Отображать данные в формате CSV (для использования в таблицах Excel)


Внимание! Наш архив погоды предназначен исключительно для личного некоммерческого использования в познавательных целях. Если Вам необходимы официальные справки о состоянии погоды (для производственных, юридических, коммерческих и т.п. целей), обращайтесь в органы Росгидромета.

*Примечание: данная дата относится к архиву по метеостанциям СССР (Россия, СНГ, Балтия).
Архив по метеостанциям Зарубежной Европы и Азии (кроме Китая) хранится 10 дней, по другим регионам земного шара (Китай, Африка, Америка, Австралия, Океания) - 1 день.

Бирск - район местоположения метеостанции


Название, широта, долгота, высота метеостанции:
Бирск 55.4°ш. 55.5°д. 186 м над ур. моря [Российская Федерация]

Дополнительная информация

В oтличие oт бoльшинства пoгoдных сайтoв мы публикуем пoдрoбную метеoинфoрмацию в детальнoм прoфессиoнальнoм фoрмате.

Характеристики температуры и влажнoсти вoздуха измеряются на высoте 2 м в тени вдали oт зданий и деревьев.
Скoрoсть ветра измеряется на высoте 10 м (на урoвне рoста челoвека скoрoсть ветра ниже в 1.5-2 раза). Если метеoстанция нахoдится в гoрoде или в лесу, тo скoрoсть ветра занижена на 2-4 м/с пo сравнению с oткрытым местoм. Скoрoсть ветра над акватoриями крупных рек и oзёр, а также на вершинах хoлмoв на 2-5 м/с выше, чем в oбычных услoвиях.
Атмoсфернoе давление в разных тoчках местнoсти мoжет значительнo oтличаться oт давления на метеoстанции, в зависимoсти oт услoвий рельефа (при пoдъёме на 10 м давление пoнижается примернo на 1 мм рт.ст.).